TimeCST,TemperatureF,Dew PointF,Humidity,Sea Level PressureIn,VisibilityMPH,Wind Direction,Wind SpeedMPH,Gust SpeedMPH,PrecipitationIn,Events,Conditions,WindDirDegrees,DateUTC
12:52 AM,37.0,33.1,86,30.14,10.0,Calm,Calm,-,N/A,,Clear,0,2012-01-10 06:52:00
1:52 AM,34.0,32.0,92,30.13,10.0,East,3.5,-,N/A,,Partly Cloudy,80,2012-01-10 07:52:00
2:52 AM,35.1,32.0,89,30.13,10.0,South,3.5,-,N/A,,Clear,190,2012-01-10 08:52:00
3:52 AM,33.1,30.9,92,30.13,9.0,Calm,Calm,-,N/A,,Clear,0,2012-01-10 09:52:00
4:52 AM,34.0,30.9,89,30.12,9.0,Calm,Calm,-,N/A,,Clear,0,2012-01-10 10:52:00
5:52 AM,30.9,28.9,92,30.11,7.0,NE,3.5,-,N/A,,Clear,40,2012-01-10 11:52:00
6:52 AM,30.0,28.0,92,30.11,8.0,NNE,3.5,-,N/A,,Clear,20,2012-01-10 12:52:00
8:52 AM,37.0,33.1,86,30.12,6.0,East,3.5,-,N/A,,Clear,80,2012-01-10 14:52:00
9:52 AM,42.1,35.1,76,30.10,8.0,East,8.1,-,N/A,,Clear,90,2012-01-10 15:52:00
10:52 AM,46.0,35.1,66,30.07,10.0,East,4.6,-,N/A,,Clear,80,2012-01-10 16:52:00
12:52 PM,52.0,32.0,47,29.99,10.0,ESE,8.1,-,N/A,,Overcast,120,2012-01-10 18:52:00
1:52 PM,52.0,30.9,45,29.96,10.0,East,10.4,-,N/A,,Overcast,100,2012-01-10 19:52:00
2:52 PM,53.1,32.0,45,29.92,10.0,East,6.9,-,N/A,,Overcast,90,2012-01-10 20:52:00
3:52 PM,51.1,35.1,54,29.90,10.0,ENE,8.1,-,N/A,,Overcast,70,2012-01-10 21:52:00
4:52 PM,51.1,35.1,54,29.89,10.0,East,9.2,-,N/A,,Overcast,90,2012-01-10 22:52:00
5:52 PM,48.0,39.0,71,29.89,10.0,ENE,8.1,-,0.00,Rain,Light Rain,70,2012-01-10 23:52:00
6:19 PM,48.2,39.2,71,29.87,10.0,East,8.1,-,0.00,,Overcast,80,2012-01-11 00:19:00
6:50 PM,46.4,41.0,81,29.86,2.5,East,8.1,-,0.05,Rain,Rain,90,2012-01-11 00:50:00
6:52 PM,46.0,41.0,83,29.87,2.5,East,8.1,-,0.05,Rain,Rain,90,2012-01-11 00:52:00
6:59 PM,46.4,42.8,87,29.85,5.0,East,8.1,-,0.00,Rain,Light Rain,90,2012-01-11 00:59:00
7:24 PM,46.4,42.8,87,29.84,10.0,East,8.1,-,0.00,,Overcast,90,2012-01-11 01:24:00
7:45 PM,46.4,42.8,87,29.83,10.0,East,5.8,-,0.00,,Overcast,100,2012-01-11 01:45:00
7:52 PM,46.0,42.1,86,29.84,10.0,East,6.9,-,0.00,,Overcast,100,2012-01-11 01:52:00
8:52 PM,46.9,43.0,86,29.80,10.0,East,5.8,-,N/A,,Overcast,80,2012-01-11 02:52:00
9:20 PM,46.4,42.8,87,29.77,10.0,East,5.8,-,N/A,,Mostly Cloudy,100,2012-01-11 03:20:00
9:52 PM,46.9,43.0,86,29.77,10.0,East,5.8,-,N/A,,Overcast,80,2012-01-11 03:52:00
10:16 PM,46.4,42.8,87,29.75,10.0,ENE,5.8,-,N/A,,Overcast,70,2012-01-11 04:16:00
10:44 PM,46.4,42.8,87,29.74,5.0,East,6.9,-,0.02,Rain,Rain,80,2012-01-11 04:44:00
10:52 PM,46.9,44.1,90,29.74,2.5,East,6.9,-,0.05,Rain,Rain,100,2012-01-11 04:52:00
10:59 PM,46.4,44.6,93,29.73,5.0,East,5.8,-,0.00,Rain,Light Rain,100,2012-01-11 04:59:00
11:08 PM,46.4,44.6,93,29.73,4.0,East,4.6,-,0.02,Rain,Rain,90,2012-01-11 05:08:00
11:29 PM,46.4,44.6,93,29.72,6.0,East,4.6,-,0.03,Rain,Light Rain,100,2012-01-11 05:29:00
11:52 PM,46.9,45.0,93,29.72,3.0,ESE,3.5,-,0.16,Rain,Rain,110,2012-01-11 05:52:00